Flag for U.S.A. Weather past 2 weeks in Augusta, Maine, U.S.A.

Now
62 °F

Sunny.


Feels Like: 62 °F
Forecast: 59 / 73 °F
Wind: 6 mph from North

Location: Augusta State Airport

Current Time: Jul 29, 2014 at 7:23:01 AM

Latest Report: Jul 29, 2014 at 6:53 AM


Visibility: 10 mi

Pressure: 29.63 "Hg

Humidity: 83%

Dew point: 57 °F

Location of AugustaLocation

Historic Weather in Augusta — Graph

°F

Augusta temperature yesterday

Maximum temperature yesterday: 71 °F (at 5:53 PM)
Minimum temperature yesterday: 62 °F (at 9:53 PM)
Average temperature yesterday: 66 °F

Past Weeks' High & Low Weather Summary

 TemperatureHumidityPressure
High86 °F (Jul 23, 11:53 AM)100% (Jul 15, 5:53 AM)30.29 "Hg (Jul 15, 5:53 AM)
Low56 °F (Jul 21, 4:53 AM)40% (Jul 18, 5:53 PM)29.46 "Hg (Jul 28, 9:53 PM)
Average69 °F80%29.92 "Hg
* Reported Jul 14 6:03 AM — Jul 29 5:53 AM, Augusta, Weather by CustomWeather, © 2014

Note: Actual official high and low records may vary slightly from our data, if they occured in-between our weather recording intervals... More about our weather records

Advertising

Augusta weather history for previous 24 hours

 ConditionsComfort  
Time TempWeatherWind HumidityBarometerVisibility
5:53 AM
Jul 29
61 °FPassing clouds.8 mph87%29.59 "Hg10 mi
4:53 AM60 °FPassing clouds.5 mph90%29.57 "Hg10 mi
3:53 AM62 °FPartly cloudy.6 mph96%29.54 "Hg10 mi
2:53 AM61 °FFog.5 mph100%29.52 "Hg4 mi
1:58 AM61 °FFog.5 mph100%29.50 "Hg2 mi
1:02 AM62 °FPassing clouds.3 mph96%29.48 "Hg7 mi
12:53 AM62 °FPassing clouds.3 mph96%29.48 "Hg10 mi
12:03 AM63 °FLow clouds.3 mph97%29.49 "Hg10 mi
11:53 PM
Jul 28
63 °FOvercast.6 mph97%29.49 "Hg10 mi
11:04 PM62 °FPassing clouds.6 mph96%29.49 "Hg10 mi
10:53 PM62 °FPassing clouds.5 mph96%29.48 "Hg10 mi
9:53 PM62 °FPassing clouds.5 mph100%29.46 "Hg10 mi
8:59 PM64 °FStrong thunderstorms. Fog.10 mph90%29.51 "Hg1 mi
7:53 PM68 °FFog.8 mph96%29.49 "Hg5 mi
6:53 PM70 °FOvercast.10 mph90%29.49 "Hg10 mi
5:53 PM71 °FOvercast.9 mph90%29.50 "Hg10 mi
4:53 PM69 °FFog.8 mph96%29.52 "Hg5 mi
3:53 PM69 °FFog.12 mph96%29.52 "Hg3 mi
2:53 PM67 °FLow clouds.10 mph97%29.53 "Hg9 mi
2:04 PM67 °FLight rain. Low clouds.5 mph97%29.56 "Hg10 mi
1:57 PM67 °FLight rain. Fog.7 mph97%29.56 "Hg3 mi
1:00 PM67 °FHeavy rain. Fog.9 mph97%29.59 "Hg1 mi
11:53 AM67 °FLight rain. Fog.8 mph100%29.64 "Hg2 mi
10:53 AM67 °FFog.7 mph100%29.63 "Hg3 mi
9:53 AM67 °FFog.6 mph100%29.66 "Hg0 mi
9:00 AM67 °FFog.6 mph100%29.67 "Hg1 mi
7:53 AM67 °FFog.5 mph100%29.67 "Hg1 mi
Weather by CustomWeather, © 2014

See weather overviewHow to use our weather pages